This demonstration page uses our WeatherBlox Daily Observations layout. Learn more.

Hourly Observations for October 24, 2017

Temp ( °F °C ) Dew Point ( °F °C ) Humidity (%) Winds ( mph kmh ) Pressure ( in mb ) Visibility ( mi km ) Precip ( " mm )
12:54 am 00:54 Cloudy 53 11.7 31 -0.6 43 43 undefined N/A 30.09 1019 N/A 0 0
1:54 am 01:54 Cloudy 53 11.7 30 -1.1 41 41 undefined N/A 30.09 1019 N/A 0 0
2:54 am 02:54 Mostly Cloudy 52 11.1 28 -2.2 40 40 undefined N/A 30.09 1019 N/A 0 0
3:54 am 03:54 Clear 48 8.9 27 -2.8 44 44 undefined N/A 30.09 1019 N/A 0 0
4:54 am 04:54 Clear 47 8.3 29 -1.7 50 50 undefined N/A 30.09 1019 N/A 0 0
5:54 am 05:54 Clear 46 7.8 29 -1.7 51 51 undefined N/A 30.12 1020 N/A 0 0
6:54 am 06:54 Clear 45 7.2 28 -2.2 52 52 undefined N/A 30.15 1021 10 16.09344 0 0
7:54 am 07:54 Sunny 44 6.7 27 -2.8 51 51 undefined N/A 30.15 1021 10 16.09344 0 0
8:54 am 08:54 Sunny 44 6.7 28 -2.2 53 53 NNW 20 31 30.18 1022 10 16.09344 0 0
9:54 am 09:54 Sunny 47 8.3 28 -2.2 48 48 NNW 20 31 30.18 1022 10 16.09344 0 0
10:54 am 10:54 Sunny 50 10 29 -1.7 44 44 NNW 21 33 30.21 1023 10 16.09344 0 0
11:54 am 11:54 Sunny 53 11.7 26 -3.3 35 35 NNW 24 39 30.18 1022 10 16.09344 0.001 0.001
12:54 pm 12:54 Sunny 55 12.8 27 -2.8 34 34 NNW 21 33 30.18 1022 10 16.09344 0 0
1:54 pm 13:54 Sunny 56 13.3 26 -3.3 32 32 NNW 32 52 30.15 1021 10 16.09344 0 0
2:54 pm 14:54 Sunny 56 13.3 26 -3.3 32 32 NNW 25 41 30.15 1021 10 16.09344 0 0
3:54 pm 15:54 Sunny 57 13.9 26 -3.3 30 30 NNW 22 35 30.15 1021 10 16.09344 0 0
4:54 pm 16:54 Sunny 57 13.9 28 -2.2 33 33 NNW 22 35 30.15 1021 10 16.09344 0 0
5:54 pm 17:54 Sunny 55 12.8 28 -2.2 35 35 NNW 22 35 30.18 1022 10 16.09344 0 0
6:54 pm 18:54 Clear 52 11.1 28 -2.2 40 40 NNW 20 31 30.18 1022 10 16.09344 0 0
7:54 pm 19:54 Clear 49 9.4 29 -1.7 46 46 WNW 5 7 30.18 1022 10 16.09344 0 0
8:54 pm 20:54 Clear 46 7.8 30 -1.1 54 54 WNW 5 7 30.18 1022 10 16.09344 0 0
9:54 pm 21:54 Clear 45 7.2 29 -1.7 54 54 undefined N/A 30.15 1021 10 16.09344 0 0
10:54 pm 22:54 Clear 43 6.1 30 -1.1 60 60 undefined N/A 30.15 1021 10 16.09344 0 0
11:54 pm 23:54 Clear 42 5.6 29 -1.7 60 60 undefined N/A 30.12 1020 10 16.09344 0 0

Powered by AerisWeather